map of BGI home
BGI - Airport
Location
City:  Bridgetown, Barbados
Name:Grantley Adams International Airport
ICAO:TBPB
IATA:BGI

Details
Type:Airport (Aerodrome, Airfield)
Use:Public/Civil, International (customs port of entry)
Latitude:1304'29"N (13.074603)
Longitude:5929'33"W (-59.492455)
Datum:WGS 1984
Elevation:169 ft (52 m)
Variation:15.64W (WMM2015 magnetic declination)
-0.03 annual change
Runways:1
Longest:11000 × 150 ft (3353 × 45.5 m), paved

Time
Time Zone:UTC-4
Local Time:

Weather
METAR:TBPB 180100Z 10014KT 9999 FEW020 27/24 Q1014 NOSIG
TAF:TBPB 171100Z 1712/1812 10018KT 9999 SCT018 PROB30
TEMPO 1800/1808 SHRA BKN014

Related Locations
Nearby:
Farthest:WATS: 12234 mi / 19689 km
Tardamu [Tardamu Airport], NT, ID

Find:

   beyond  
but within

Other Information
Maps:
NOTAMs:
Links:
Sources:

  
  • flag of Barbados
  

Airport Diagram

Airport diagram for BGI

Larger airport diagram (OBSOLETE) from NGA

Sectional Chart

Flight Planning
at skyvector.com

Satellite Image

Google Maps Satellite view

 

Copyright © 2004-2018 Karl L. Swartz. All rights reserved.
The Great Circle Mapper name and logo are trademarks of the Great Circle Mapper.
All other trademarks mentioned herein belong to their respective owners.
Please see credits for attibutions and further copyright information.

  Follow gcmap on Facebook Follow gcmap on Twitter Follow gcmap on Google+ GCmap on LinkedIn

hCard Microformat

Geo Microformat